Location: *
(51.2167°N, 10.0667°E)
Time: 21:17:33
(UTC+00:00)

Cosmos 1417 Rocket - Pass Details

Date: 12 December 2019
Orbit: 952 x 999 km, 83.0° (Epoch: 16 January)

Event Time Altitude Azimuth Distance (km) Brightness Sun altitude
Rises 17:13:46 0° 351° (N) 3,642 7.4 -17.9°
Reaches altitude 10° 17:16:19 10° 355° (N) 2,691 6.7 -18.2°
Maximum altitude 17:22:25 62° 76° (ENE) 1,066 4.4 -19.2°
Drops below altitude 10° 17:28:29 10° 157° (SSE) 2,682 6.7 -20.1°
Sets 17:31:00 0° 161° (SSE) 3,629 7.4 -20.5°
